User: anonymous   Login
Location: Arbon
(43.0005°N, 0.7472°E)
Time: 10:31:11
(UTC+00:00)
Language:

Lacrosse 4 Rocket - Orbit

View from above orbital plane
View from above orbital plane
View from above satellite
View from above satellite

Ground track
Ground track

The orbit data is extracted from the following two-line orbital elements,

1 26474U 00047B   20296.68614817 +.00000137 +00000-0 +22798-4 0  9997
2 26474 067.9930 085.4644 0051881 054.6149 305.9824 14.96003220098276
Epoch (UTC): 22 October 2020 16:28:03
Eccentricity: 0.0051881
inclination: 67.9930°
perigee height: 543 km
apogee height: 615 km
right ascension of ascending node: 85.4644°
argument of perigee: 54.6149°
revolutions per day: 14.96003220
mean anomaly at epoch: 305.9824°
orbit number at epoch: 9827

The dashed part of the orbit path shows where the satellite is in the earth's shadow,  

DLR